Find Tsikada

NORAD ID: 23463 Int'l Des: 1995-002 Owner: VMFR Country: RU operational
LEOCIRCULARPOLAR

Live-Position

3D-Globus wird geladen...

Über Tsikada

Beschreibung wird geladen...

Nächste Überflüge

Passes for default location (London). Set your location on the main map for personalized predictions.

Höhenverlauf

Loading altitude history...

Zweizeiliger Elementsatz

1 23463U 95002A 26104.87868671 .00000034 00000-0 20516-4 0 9993
2 23463 82.9265 62.7366 0037958 317.1237 104.2418 13.72729778563623
Epoch: 14. Apr. 2026 • Age: 5 hours

Aktueller Status

Höhe 985.7 km
Geschwindigkeit 7.37 km/s
Subsatellitenpunkt 30.14°N, 169.32°W
Startdatum 24. Jan. 1995
Alter 31.2 years
Typ other

Technische Details

Klassifizierung Payload
Masse 800.00 kg
Trockenmasse 800.00 kg
Gesamtmasse 800.00 kg
Länge 5.00 m
Durchmesser 2.10 m
Spannweite 17.00 m
Form Cyl + Ant
Hersteller POL
Bus-Typ KAUR-1 11F643
Phasenstatus In Orbit
Besitzer/Staat VMFR/RU

Most Searched